Time,TemperatureF,DewpointF,PressureIn,WindDirection,WindDirectionDegrees,WindSpeedMPH,WindSpeedGustMPH,Humidity,HourlyPrecipIn,Conditions,Clouds,dailyrainin,SolarRadiationWatts/m^2,SoftwareType,DateUTC
2013-06-24 00:02:00,66.0,65.0,-100.00,SW,228,2.0,4.0,97,0.00,,,0.31,0.000000,,2013-06-24 05:02:00,
2013-06-24 00:56:00,67.0,66.0,-100.00,SW,225,0.0,4.0,97,0.00,,,0.21,0.000000,,2013-06-24 05:56:00,
2013-06-24 01:05:00,67.0,66.0,-100.00,SSW,202,2.0,5.0,96,0.00,,,0.13,0.000000,,2013-06-24 06:05:00,
2013-06-24 01:40:00,67.0,66.0,-100.00,SSW,202,2.0,5.0,96,0.00,,,0.13,0.000000,,2013-06-24 06:40:00,
2013-06-24 01:47:00,67.0,66.0,-100.00,SSW,202,2.0,5.0,96,0.00,,,0.13,0.000000,,2013-06-24 06:47:00,
2013-06-24 01:57:00,67.0,66.0,-100.00,SSW,202,2.0,5.0,96,0.00,,,0.13,0.000000,,2013-06-24 06:57:00,
2013-06-24 02:37:00,65.0,65.0,-100.00,SSW,209,2.0,3.0,100,0.00,,,0.09,0.000000,,2013-06-24 07:37:00,
2013-06-24 02:49:00,65.0,65.0,-100.00,SSW,209,2.0,3.0,100,0.00,,,0.09,0.000000,,2013-06-24 07:49:00,
2013-06-24 02:57:00,65.0,65.0,-100.00,SSW,209,2.0,3.0,100,0.00,,,0.09,0.000000,,2013-06-24 07:57:00,
2013-06-24 03:04:00,65.0,65.0,-100.00,SSW,209,2.0,3.0,100,0.00,,,0.09,0.000000,,2013-06-24 08:04:00,
2013-06-24 03:37:00,63.0,63.0,-100.00,SSW,211,1.0,3.0,100,0.00,,,0.06,0.000000,,2013-06-24 08:37:00,
2013-06-24 03:47:00,63.0,63.0,-100.00,SSW,211,1.0,3.0,100,0.00,,,0.06,0.000000,,2013-06-24 08:47:00,
2013-06-24 03:55:00,63.0,63.0,-100.00,SSW,211,1.0,3.0,100,0.00,,,0.06,0.000000,,2013-06-24 08:55:00,
2013-06-24 04:05:00,63.0,63.0,-100.00,SSW,204,1.0,3.0,100,0.00,,,0.04,0.000000,,2013-06-24 09:05:00,
2013-06-24 04:38:00,63.0,63.0,-100.00,SSW,204,1.0,3.0,100,0.00,,,0.04,0.000000,,2013-06-24 09:38:00,
2013-06-24 04:49:00,63.0,63.0,-100.00,SSW,204,1.0,3.0,100,0.00,,,0.04,0.000000,,2013-06-24 09:49:00,
2013-06-24 05:00:00,63.0,63.0,-100.00,SSW,204,1.0,3.0,100,0.00,,,0.04,0.000000,,2013-06-24 10:00:00,
2013-06-24 05:38:00,63.0,63.0,-100.00,SW,214,0.0,4.0,100,0.00,,,0.01,0.000000,,2013-06-24 10:38:00,
2013-06-24 05:51:00,63.0,63.0,-100.00,SW,214,0.0,4.0,100,0.00,,,0.01,0.000000,,2013-06-24 10:51:00,
2013-06-24 05:58:00,63.0,63.0,-100.00,SW,214,0.0,4.0,100,0.00,,,0.01,0.000000,,2013-06-24 10:58:00,
2013-06-24 06:05:00,65.0,65.0,-100.00,SSE,167,1.0,3.0,100,0.00,,,0.00,22.000000,,2013-06-24 11:05:00,
2013-06-24 06:35:00,65.0,65.0,-100.00,SSE,167,1.0,3.0,100,0.00,,,0.00,22.000000,,2013-06-24 11:35:00,
2013-06-24 06:58:00,65.0,65.0,-100.00,SSE,167,1.0,3.0,100,0.00,,,0.00,22.000000,,2013-06-24 11:58:00,
2013-06-24 07:05:00,71.0,69.0,-100.00,SW,220,5.0,9.0,94,0.00,,,0.00,101.000000,,2013-06-24 12:05:00,
2013-06-24 07:37:00,71.0,69.0,-100.00,SW,220,5.0,9.0,94,0.00,,,0.00,101.000000,,2013-06-24 12:37:00,
2013-06-24 07:49:00,71.0,69.0,-100.00,SW,220,5.0,9.0,94,0.00,,,0.00,101.000000,,2013-06-24 12:49:00,
2013-06-24 07:55:00,71.0,69.0,-100.00,SW,220,5.0,9.0,94,0.00,,,0.00,101.000000,,2013-06-24 12:55:00,
2013-06-24 08:36:00,73.0,70.0,-100.00,SSW,209,2.0,8.0,89,0.00,,,0.00,166.000000,,2013-06-24 13:36:00,
2013-06-24 08:46:00,73.0,70.0,-100.00,SSW,209,2.0,8.0,89,0.00,,,0.00,166.000000,,2013-06-24 13:46:00,
2013-06-24 08:57:00,73.0,70.0,-100.00,SSW,209,2.0,8.0,89,0.00,,,0.00,166.000000,,2013-06-24 13:57:00,
2013-06-24 09:03:00,73.0,70.0,-100.00,SSW,209,2.0,8.0,89,0.00,,,0.00,166.000000,,2013-06-24 14:03:00,
2013-06-24 09:05:00,76.0,69.0,-100.00,South,185,4.0,8.0,80,0.00,,,0.00,344.000000,,2013-06-24 14:05:00,
2013-06-24 09:38:00,76.0,69.0,-100.00,South,185,4.0,8.0,80,0.00,,,0.00,344.000000,,2013-06-24 14:38:00,
2013-06-24 09:46:00,76.0,69.0,-100.00,South,185,4.0,8.0,80,0.00,,,0.00,344.000000,,2013-06-24 14:46:00,
2013-06-24 09:59:00,76.0,69.0,-100.00,South,185,4.0,8.0,80,0.00,,,0.00,344.000000,,2013-06-24 14:59:00,
2013-06-24 10:37:00,76.0,70.0,-100.00,SW,231,5.0,12.0,81,0.00,,,0.00,443.000000,,2013-06-24 15:37:00,
2013-06-24 10:48:00,76.0,70.0,-100.00,SW,231,5.0,12.0,81,0.00,,,0.00,443.000000,,2013-06-24 15:48:00,
2013-06-24 10:57:00,76.0,70.0,-100.00,SW,231,5.0,12.0,81,0.00,,,0.00,443.000000,,2013-06-24 15:57:00,
2013-06-24 11:04:00,76.0,70.0,-100.00,SW,231,5.0,12.0,81,0.00,,,0.00,443.000000,,2013-06-24 16:04:00,
2013-06-24 11:05:00,76.0,70.0,-100.00,SSW,195,7.0,13.0,81,0.00,,,0.00,240.000000,,2013-06-24 16:05:00,
2013-06-24 11:36:00,76.0,70.0,-100.00,SSW,195,7.0,13.0,81,0.00,,,0.00,240.000000,,2013-06-24 16:36:00,
2013-06-24 11:45:00,76.0,70.0,-100.00,SSW,195,7.0,13.0,81,0.00,,,0.00,240.000000,,2013-06-24 16:45:00,
2013-06-24 11:56:00,76.0,70.0,-100.00,SSW,195,7.0,13.0,81,0.00,,,0.00,240.000000,,2013-06-24 16:56:00,
2013-06-24 12:36:00,76.0,70.0,-100.00,SW,214,8.0,15.0,81,0.00,,,0.00,354.000000,,2013-06-24 17:36:00,
2013-06-24 12:47:00,76.0,70.0,-100.00,SW,214,8.0,15.0,81,0.00,,,0.00,354.000000,,2013-06-24 17:47:00,
2013-06-24 12:57:00,76.0,70.0,-100.00,SW,214,8.0,15.0,81,0.00,,,0.00,354.000000,,2013-06-24 17:57:00,
2013-06-24 13:02:00,76.0,70.0,-100.00,SW,214,8.0,15.0,81,0.00,,,0.00,354.000000,,2013-06-24 18:02:00,
2013-06-24 13:05:00,81.0,71.0,-100.00,SSW,209,8.0,15.0,71,0.00,,,0.00,569.000000,,2013-06-24 18:05:00,
2013-06-24 13:37:00,81.0,71.0,-100.00,SSW,209,8.0,15.0,71,0.00,,,0.00,569.000000,,2013-06-24 18:37:00,
2013-06-24 13:49:00,81.0,71.0,-100.00,SSW,209,8.0,15.0,71,0.00,,,0.00,569.000000,,2013-06-24 18:49:00,
2013-06-24 13:55:00,81.0,71.0,-100.00,SSW,209,8.0,15.0,71,0.00,,,0.00,569.000000,,2013-06-24 18:55:00,
2013-06-24 14:05:00,81.0,69.0,-100.00,WSW,241,9.0,17.0,67,0.00,,,0.00,723.000000,,2013-06-24 19:05:00,
2013-06-24 14:37:00,81.0,69.0,-100.00,WSW,241,9.0,17.0,67,0.00,,,0.00,723.000000,,2013-06-24 19:37:00,
2013-06-24 14:46:00,81.0,69.0,-100.00,WSW,241,9.0,17.0,67,0.00,,,0.00,723.000000,,2013-06-24 19:46:00,
2013-06-24 14:57:00,81.0,69.0,-100.00,WSW,241,9.0,17.0,67,0.00,,,0.00,723.000000,,2013-06-24 19:57:00,
2013-06-24 15:34:00,80.0,70.0,-100.00,SW,225,10.0,18.0,71,0.00,,,-99.99,460.000000,,2013-06-24 20:34:00,
2013-06-24 15:47:00,80.0,70.0,-100.00,SW,225,10.0,18.0,71,0.00,,,-99.99,460.000000,,2013-06-24 20:47:00,
2013-06-24 15:56:00,80.0,70.0,-100.00,SW,225,10.0,18.0,71,0.00,,,-99.99,460.000000,,2013-06-24 20:56:00,
2013-06-24 16:04:00,80.0,70.0,-100.00,SW,225,10.0,18.0,71,0.00,,,-99.99,460.000000,,2013-06-24 21:04:00,
2013-06-24 16:39:00,80.0,69.0,-100.00,WSW,240,7.0,13.0,69,0.00,,,0.00,327.000000,,2013-06-24 21:39:00,
2013-06-24 16:48:00,80.0,69.0,-100.00,WSW,240,7.0,13.0,69,0.00,,,0.00,327.000000,,2013-06-24 21:48:00,
2013-06-24 16:55:00,80.0,69.0,-100.00,WSW,240,7.0,13.0,69,0.00,,,0.00,327.000000,,2013-06-24 21:55:00,
2013-06-24 17:04:00,80.0,69.0,-100.00,WSW,240,7.0,13.0,69,0.00,,,0.00,327.000000,,2013-06-24 22:04:00,
2013-06-24 17:05:00,79.0,68.0,-100.00,SSW,202,9.0,16.0,68,0.00,,,0.00,337.000000,,2013-06-24 22:05:00,
2013-06-24 17:50:00,79.0,68.0,-100.00,SSW,202,9.0,16.0,68,0.00,,,0.00,337.000000,,2013-06-24 22:50:00,
2013-06-24 17:56:00,79.0,68.0,-100.00,SSW,202,9.0,16.0,68,0.00,,,0.00,337.000000,,2013-06-24 22:56:00,
2013-06-24 18:46:00,76.0,68.0,-100.00,SW,220,8.0,19.0,76,0.00,,,0.00,140.000000,,2013-06-24 23:46:00,
2013-06-24 18:55:00,76.0,68.0,-100.00,SW,220,8.0,19.0,76,0.00,,,0.00,140.000000,,2013-06-24 23:55:00,
2013-06-24 19:04:00,76.0,68.0,-100.00,SW,220,8.0,19.0,76,0.00,,,0.00,140.000000,,2013-06-25 00:04:00,
2013-06-24 19:36:00,75.0,68.0,-100.00,SW,234,2.0,12.0,79,0.00,,,0.00,115.000000,,2013-06-25 00:36:00,
2013-06-24 19:49:00,75.0,68.0,-100.00,SW,234,2.0,12.0,79,0.00,,,0.00,115.000000,,2013-06-25 00:49:00,
2013-06-24 19:56:00,75.0,68.0,-100.00,SW,234,2.0,12.0,79,0.00,,,0.00,115.000000,,2013-06-25 00:56:00,
2013-06-24 20:05:00,74.0,69.0,-100.00,West,262,1.0,4.0,85,0.00,,,0.00,74.000000,,2013-06-25 01:05:00,
2013-06-24 20:38:00,74.0,69.0,-100.00,West,262,1.0,4.0,85,0.00,,,0.00,74.000000,,2013-06-25 01:38:00,
2013-06-24 20:46:00,74.0,69.0,-100.00,West,262,1.0,4.0,85,0.00,,,0.00,74.000000,,2013-06-25 01:46:00,
2013-06-24 20:57:00,74.0,69.0,-100.00,West,262,1.0,4.0,85,0.00,,,0.00,74.000000,,2013-06-25 01:57:00,
2013-06-24 21:38:00,71.0,69.0,-100.00,North,0,3.0,7.0,95,0.00,,,0.00,7.000000,,2013-06-25 02:38:00,
2013-06-24 21:49:00,71.0,69.0,-100.00,North,0,3.0,7.0,95,0.00,,,0.00,7.000000,,2013-06-25 02:49:00,
2013-06-24 21:57:00,71.0,69.0,-100.00,North,0,3.0,7.0,95,0.00,,,0.00,7.000000,,2013-06-25 02:57:00,
2013-06-24 22:47:00,70.0,68.0,-100.00,SW,222,3.0,6.0,93,0.00,,,0.00,0.000000,,2013-06-25 03:47:00,
2013-06-24 22:57:00,70.0,68.0,-100.00,SW,222,3.0,6.0,93,0.00,,,0.00,0.000000,,2013-06-25 03:57:00,
2013-06-24 23:01:00,70.0,68.0,-100.00,SW,222,3.0,6.0,93,0.00,,,0.00,0.000000,,2013-06-25 04:01:00,
2013-06-24 23:02:00,70.0,68.0,-100.00,SW,222,3.0,6.0,93,0.00,,,0.00,0.000000,,2013-06-25 04:02:00,
2013-06-24 23:34:00,69.0,68.0,-100.00,WNW,291,0.0,4.0,95,0.00,,,0.00,0.000000,,2013-06-25 04:34:00,
2013-06-24 23:43:00,69.0,68.0,-100.00,WNW,291,0.0,4.0,95,0.00,,,0.00,0.000000,,2013-06-25 04:43:00,
2013-06-24 23:52:00,69.0,68.0,-100.00,WNW,291,0.0,4.0,95,0.00,,,0.00,0.000000,,2013-06-25 04:52:00,